• en France
  • Liste des pays
  • À 7 jours
  • Température de l'eau
  • Carte satellitaire
  • Carte météo
  • Widgets météo
  • user-avatar
    Se connecter

    Météo par heure à Maydanskoe

    Ce jour, 22 Août, Mercredi

    Heure Température Précipitation Vent Pression Humidité
    00:00 +20°C° 0 mm 2 m/s 711 mmHg 72%
    01:00 +20°C° 0 mm 2 m/s 711 mmHg 69%
    02:00 +19°C° 0 mm 2 m/s 711 mmHg 66%
    03:00 +19°C° 0 mm 2 m/s 710 mmHg 63%
    04:00 +19°C° 0 mm 2 m/s 711 mmHg 62%
    05:00 +20°C° 0 mm 2 m/s 711 mmHg 60%
    06:00 +20°C° 0 mm 2 m/s 711 mmHg 59%
    07:00 +23°C° 0 mm 2 m/s 711 mmHg 56%
    08:00 +25°C° 0 mm 2 m/s 711 mmHg 52%
    09:00 +27°C° 0 mm 1 m/s 711 mmHg 48%
    10:00 +28°C° 0 mm 2 m/s 711 mmHg 48%
    11:00 +29°C° 0 mm 2 m/s 711 mmHg 48%
    12:00 +29°C° 0 mm 2 m/s 711 mmHg 48%
    13:00 +29°C° 0,2 mm 2 m/s 711 mmHg 50%
    14:00 +29°C° 0,2 mm 2 m/s 711 mmHg 53%
    15:00 +29°C° 0,2 mm 3 m/s 710 mmHg 55%
    16:00 +28°C° 0,5 mm 2 m/s 710 mmHg 61%
    17:00 +27°C° 0,5 mm 2 m/s 710 mmHg 66%
    18:00 +26°C° 0,5 mm 1 m/s 710 mmHg 72%
    19:00 +25°C° 0,3 mm 1 m/s 711 mmHg 75%
    20:00 +24°C° 0,3 mm 1 m/s 711 mmHg 77%
    21:00 +23°C° 0,3 mm 2 m/s 711 mmHg 80%
    22:00 +23°C° 0,3 mm 2 m/s 711 mmHg 80%
    23:00 +21°C° 0,3 mm 2 m/s 711 mmHg 80%

    Demain, 23 Août, Jeudi

    Heure Température Précipitation Vent Pression Humidité
    00:00 +21°C° 0,3 mm 2 m/s 711 mmHg 80%
    01:00 +20°C° 0,1 mm 2 m/s 711 mmHg 80%
    02:00 +20°C° 0,1 mm 2 m/s 711 mmHg 80%
    03:00 +20°C° 0,1 mm 2 m/s 711 mmHg 79%
    04:00 +20°C° 0 mm 2 m/s 711 mmHg 78%
    05:00 +20°C° 0 mm 2 m/s 711 mmHg 77%
    06:00 +21°C° 0 mm 2 m/s 712 mmHg 76%
    07:00 +23°C° 0 mm 2 m/s 712 mmHg 69%
    08:00 +25°C° 0 mm 2 m/s 712 mmHg 62%
    09:00 +27°C° 0 mm 2 m/s 713 mmHg 55%
    10:00 +28°C° 0 mm 2 m/s 713 mmHg 53%
    11:00 +28°C° 0 mm 3 m/s 713 mmHg 51%
    12:00 +29°C° 0 mm 3 m/s 713 mmHg 49%
    13:00 +29°C° 0,1 mm 3 m/s 713 mmHg 50%
    14:00 +29°C° 0,1 mm 3 m/s 713 mmHg 51%
    15:00 +28°C° 0,1 mm 3 m/s 712 mmHg 52%
    16:00 +27°C° 0 mm 2 m/s 712 mmHg 57%
    17:00 +26°C° 0 mm 2 m/s 712 mmHg 62%
    18:00 +25°C° 0 mm 2 m/s 712 mmHg 67%
    19:00 +24°C° 0 mm 1 m/s 713 mmHg 72%
    20:00 +23°C° 0 mm 1 m/s 713 mmHg 77%
    21:00 +21°C° 0 mm 1 m/s 713 mmHg 82%
    22:00 +21°C° 0 mm 1 m/s 713 mmHg 81%
    23:00 +21°C° 0 mm 1 m/s 713 mmHg 81%

    Après-demain, 24 Août, Vendredi

    Heure Température Précipitation Vent Pression Humidité
    00:00 +21°C° 0 mm 1 m/s 713 mmHg 80%
    01:00 +19°C° 0 mm 2 m/s 713 mmHg 80%
    02:00 +19°C° 0 mm 2 m/s 713 mmHg 80%
    03:00 +19°C° 0 mm 2 m/s 713 mmHg 79%
    04:00 +19°C° 0 mm 2 m/s 713 mmHg 79%
    05:00 +20°C° 0 mm 2 m/s 713 mmHg 78%
    06:00 +20°C° 0 mm 2 m/s 713 mmHg 78%
    07:00 +23°C° 0 mm 2 m/s 713 mmHg 73%
    08:00 +25°C° 0 mm 3 m/s 713 mmHg 68%
    09:00 +26°C° 0 mm 3 m/s 713 mmHg 63%
    10:00 +27°C° 0 mm 3 m/s 713 mmHg 63%
    11:00 +27°C° 0 mm 4 m/s 713 mmHg 63%
    12:00 +28°C° 0 mm 4 m/s 713 mmHg 63%
    13:00 +28°C° 0,1 mm 4 m/s 712 mmHg 64%
    14:00 +27°C° 0,1 mm 4 m/s 712 mmHg 65%
    15:00 +27°C° 0,1 mm 4 m/s 712 mmHg 66%
    16:00 +26°C° 0,3 mm 4 m/s 712 mmHg 69%
    17:00 +25°C° 0,3 mm 3 m/s 712 mmHg 73%
    18:00 +24°C° 0,3 mm 3 m/s 712 mmHg 77%
    19:00 +23°C° 0,1 mm 2 m/s 712 mmHg 79%
    20:00 +21°C° 0,1 mm 2 m/s 712 mmHg 81%
    21:00 +20°C° 0,1 mm 2 m/s 712 mmHg 83%
    22:00 +20°C° 0 mm 2 m/s 712 mmHg 81%
    23:00 +20°C° 0 mm 2 m/s 712 mmHg 79%

    25 Août, Samedi

    Heure Température Précipitation Vent Pression Humidité
    00:00 +19°C° 0 mm 2 m/s 711 mmHg 77%
    01:00 +19°C° 0 mm 2 m/s 711 mmHg 76%
    02:00 +20°C° 0 mm 1 m/s 711 mmHg 75%
    03:00 +20°C° 0 mm 1 m/s 711 mmHg 74%
    04:00 +20°C° 0 mm 1 m/s 711 mmHg 73%
    05:00 +20°C° 0 mm 1 m/s 711 mmHg 72%
    06:00 +21°C° 0 mm 1 m/s 711 mmHg 71%
    07:00 +23°C° 0 mm 2 m/s 711 mmHg 65%
    08:00 +25°C° 0 mm 2 m/s 711 mmHg 58%
    09:00 +27°C° 0 mm 2 m/s 712 mmHg 52%
    10:00 +28°C° 0,1 mm 3 m/s 712 mmHg 51%
    11:00 +28°C° 0,1 mm 3 m/s 712 mmHg 50%
    12:00 +29°C° 0,1 mm 4 m/s 711 mmHg 48%
    13:00 +29°C° 0,3 mm 4 m/s 711 mmHg 50%
    14:00 +29°C° 0,3 mm 4 m/s 711 mmHg 51%
    15:00 +29°C° 0,3 mm 4 m/s 711 mmHg 52%
    16:00 +27°C° 0,1 mm 4 m/s 711 mmHg 57%
    17:00 +26°C° 0,1 mm 3 m/s 711 mmHg 62%
    18:00 +25°C° 0,1 mm 3 m/s 711 mmHg 67%
    19:00 +24°C° 0,1 mm 3 m/s 711 mmHg 71%
    20:00 +23°C° 0,1 mm 2 m/s 711 mmHg 75%
    21:00 +20°C° 0,1 mm 2 m/s 711 mmHg 79%
    22:00 +20°C° 0 mm 2 m/s 711 mmHg 78%
    23:00 +20°C° 0 mm 2 m/s 711 mmHg 76%

    26 Août, Dimanche

    Heure Température Précipitation Vent Pression Humidité
    00:00 +20°C° 0 mm 2 m/s 711 mmHg 74%
    01:00 +20°C° 0 mm 2 m/s 710 mmHg 72%
    02:00 +20°C° 0 mm 2 m/s 710 mmHg 70%
    03:00 +19°C° 0 mm 2 m/s 710 mmHg 68%
    04:00 +20°C° 0 mm 2 m/s 710 mmHg 66%
    05:00 +20°C° 0 mm 2 m/s 710 mmHg 64%
    06:00 +20°C° 0 mm 2 m/s 710 mmHg 62%
    07:00 +22°C° 0 mm 3 m/s 710 mmHg 54%
    08:00 +26°C° 0 mm 3 m/s 710 mmHg 47%
    09:00 +29°C° 0 mm 3 m/s 710 mmHg 39%
    10:00 +29°C° 0 mm 3 m/s 710 mmHg 39%
    11:00 +30°C° 0 mm 4 m/s 710 mmHg 38%
    12:00 +32°C° 0 mm 4 m/s 709 mmHg 37%
    13:00 +32°C° 0 mm 4 m/s 709 mmHg 39%
    14:00 +32°C° 0 mm 4 m/s 709 mmHg 42%
    15:00 +32°C° 0 mm 4 m/s 708 mmHg 44%
    16:00 +29°C° 0 mm 4 m/s 708 mmHg 50%
    17:00 +27°C° 0 mm 3 m/s 708 mmHg 56%
    18:00 +26°C° 0 mm 3 m/s 708 mmHg 62%
    19:00 +25°C° 0 mm 3 m/s 708 mmHg 66%
    20:00 +23°C° 0 mm 2 m/s 708 mmHg 69%
    21:00 +21°C° 0 mm 2 m/s 708 mmHg 72%
    22:00 +21°C° 0 mm 2 m/s 708 mmHg 69%
    23:00 +21°C° 0 mm 2 m/s 708 mmHg 67%

    27 Août, Lundi

    Heure Température Précipitation Vent Pression Humidité
    00:00 +20°C° 0 mm 2 m/s 708 mmHg 64%
    01:00 +20°C° 0 mm 2 m/s 708 mmHg 62%
    02:00 +20°C° 0 mm 2 m/s 708 mmHg 60%
    03:00 +20°C° 0 mm 2 m/s 708 mmHg 58%
    04:00 +21°C° 0 mm 1 m/s 708 mmHg 58%
    05:00 +21°C° 0 mm 1 m/s 708 mmHg 58%
    06:00 +21°C° 0 mm 1 m/s 708 mmHg 58%
    07:00 +23°C° 0 mm 2 m/s 708 mmHg 53%
    08:00 +25°C° 0 mm 2 m/s 708 mmHg 49%
    09:00 +27°C° 0 mm 2 m/s 709 mmHg 44%
    10:00 +28°C° 0 mm 3 m/s 708 mmHg 44%
    11:00 +29°C° 0 mm 3 m/s 708 mmHg 43%
    12:00 +30°C° 0 mm 3 m/s 708 mmHg 43%
    13:00 +29°C° 0,2 mm 4 m/s 708 mmHg 45%
    14:00 +29°C° 0,2 mm 4 m/s 708 mmHg 47%
    15:00 +29°C° 0,2 mm 4 m/s 708 mmHg 49%
    16:00 +27°C° 0,3 mm 3 m/s 708 mmHg 55%
    17:00 +26°C° 0,3 mm 3 m/s 708 mmHg 61%
    18:00 +25°C° 0,3 mm 2 m/s 709 mmHg 68%
    19:00 +24°C° 0,3 mm 2 m/s 709 mmHg 73%
    20:00 +22°C° 0,3 mm 1 m/s 709 mmHg 77%
    21:00 +21°C° 0,3 mm 1 m/s 709 mmHg 82%
    22:00 +21°C° 0,1 mm 1 m/s 709 mmHg 81%
    23:00 +21°C° 0,1 mm 1 m/s 709 mmHg 81%
    Voir plus